(178448) = 1999 FG14 = 2004 KW4 = 2005 SH63

Discovered at Kitt Peak on 1999-03-19 by Spacewatch.

Orbit

Orbit type: Main Belt

Note: WebGL enabled browser required.

epoch2023-09-13.0
epoch JD2460200.5
perihelion date2023-06-28.80941
perihelion JD2460124.30941
argument of perihelion (°)112.24239
ascending node (°)195.79507
inclination (°)6.89102
eccentricity0.0984628
perihelion distance (AU)2.4907632
Tisserand w.r.t. Jupiter3.3
ΔV w.r.t. Earth (km/sec)10.1
semimajor axis (AU)2.7627957
mean anomaly (°)16.35242
mean daily motion (°/day)0.21462520
aphelion distance (AU)3.035
period (years)4.59
P-vector [x]0.61435658
P-vector [y]-0.76088786
P-vector [z]-0.20884363
Q-vector [x]0.78835234
Q-vector [y]0.58098235
Q-vector [z]0.20238600
absolute magnitude15.89
phase slope0.15
uncertainty0
referenceMPEC 2024-A34
observations used736
oppositions19
arc length (days)11746
first opposition used1991
last opposition used2023
residual rms (arc-secs)0.68
perturbers coarse indicatorM-v
perturbers precise indicator003Ek
first observation date used1991-09-12.0
last observation date used2023-11-09.0
computer nameMPCLINUX
JD of orbit computation2456966.861324
perihelion JD uncertainty (days)1.0630E-04
argument of perihelion uncertainty (°)3.0336E-05
ascending node uncertainty (°)1.7815E-05
inclination uncertainty (°)4.5200E-06
eccentricity uncertainty 2.7239E-08
perihelion distance uncertainty (AU)7.6984E-08
Minimum Orbit Intersection Distances (in AU)
for orbit epoch: 2460200.5, reference: E2024-A34
Mercury2.06378
Venus1.77526
Earth1.48608
Mars1.11232
Jupiter2.18804
Saturn6.08834
Uranus15.472
Neptune27.0521

Observations

748 total observations over interval: 1991 09 12.15171 – 2023 11 09.116989
These data are available for download (format description).

Date (UT) J2000 RA J2000 Dec Magn Location Ref
1991 09 12.15171 22 35 07.35 -02 14 06.2   691 – Steward Observatory, Kitt Peak-Spacewatch MPS 143287
1991 09 12.17546 22 35 06.36 -02 14 16.5 20.1 V 691 – Steward Observatory, Kitt Peak-Spacewatch MPS 143287
1991 09 12.19760 22 35 05.34 -02 14 27.1   691 – Steward Observatory, Kitt Peak-Spacewatch MPS 143287
1999 03 09.45254 13 31 28.89 -10 10 09.2 20.4 V 691 – Steward Observatory, Kitt Peak-Spacewatch MPS 34107
1999 03 09.47377 13 31 28.39 -10 10 03.6 20.3 V 691 – Steward Observatory, Kitt Peak-Spacewatch MPS 34107
1999 03 09.49510 13 31 27.88 -10 09 58.2 20.2 V 691 – Steward Observatory, Kitt Peak-Spacewatch MPS 34107
1999 03 19.43176 13 26 42.03 -09 20 34.2 20.3 V 691 – Steward Observatory, Kitt Peak-Spacewatch MPS 4241
1999 03 19.45812 13 26 41.05 -09 20 25.1 20.2 V 691 – Steward Observatory, Kitt Peak-Spacewatch MPS 4241
1999 03 19.49164 13 26 39.85 -09 20 13.8 20.2 V 691 – Steward Observatory, Kitt Peak-Spacewatch MPS 4241
1999 03 23.46500 13 24 14.45 -08 56 44.2 20.9 V 691 – Steward Observatory, Kitt Peak-Spacewatch MPS 4241
1999 03 23.48619 13 24 13.57 -08 56 39.6 20.5 V 691 – Steward Observatory, Kitt Peak-Spacewatch MPS 4241
1999 06 18.18411 12 51 41.06 -02 49 24.0 21.2 V 691 – Steward Observatory, Kitt Peak-Spacewatch MPS 143287
1999 06 18.19301 12 51 41.25 -02 49 24.4 21.4 V 691 – Steward Observatory, Kitt Peak-Spacewatch MPS 143287
1999 06 18.20370 12 51 41.52 -02 49 25.8 20.9 V 691 – Steward Observatory, Kitt Peak-Spacewatch MPS 143287
2001 12 11.28881 04 17 52.29 +12 56 48.8 20.1   704 – Lincoln Laboratory ETS, New Mexico MPS 143287
2001 12 11.30428 04 17 51.56 +12 56 45.8 20.2   704 – Lincoln Laboratory ETS, New Mexico MPS 143287
2001 12 11.32002 04 17 50.75 +12 56 44.2 20.3   704 – Lincoln Laboratory ETS, New Mexico MPS 143287
2003 02 09.25625 10 00 10.08 +04 04 36.3 20.6   644 – Palomar Mountain/NEAT MPS 143287
2003 02 09.32055 10 00 06.93 +04 04 55.6 20.6   644 – Palomar Mountain/NEAT MPS 143287
2003 02 09.38934 10 00 03.54 +04 05 16.5 20.6   644 – Palomar Mountain/NEAT MPS 143287
2004 05 18.32371 16 02 39.08 -12 49 18.1 19.4   704 – Lincoln Laboratory ETS, New Mexico MPS 107489
2004 05 18.33303 16 02 38.56 -12 49 15.3 19.9   704 – Lincoln Laboratory ETS, New Mexico MPS 107489
2004 05 18.34233 16 02 38.05 -12 49 12.3 19.7   704 – Lincoln Laboratory ETS, New Mexico MPS 107489
2004 05 18.35172 16 02 37.46 -12 49 09.0 19.6   704 – Lincoln Laboratory ETS, New Mexico MPS 107489
2004 05 18.36132 16 02 37.09 -12 49 07.7 19.4   704 – Lincoln Laboratory ETS, New Mexico MPS 107489
2004 05 20.27605 16 00 59.88 -12 39 54.4 19.6 V 691 – Steward Observatory, Kitt Peak-Spacewatch MPS 107489
2004 05 20.30422 16 00 58.37 -12 39 46.5 19.4 V 691 – Steward Observatory, Kitt Peak-Spacewatch MPS 107489
2004 05 20.33064 16 00 56.98 -12 39 39.0 19.4 V 691 – Steward Observatory, Kitt Peak-Spacewatch MPS 107489
2005 08 29.39512 00 43 06.85 +07 53 48.3 19.4 R 699 – Lowell Observatory-LONEOS MPS 143288
2005 08 29.41342 00 43 06.46 +07 53 42.4   699 – Lowell Observatory-LONEOS MPS 143288
2005 08 29.43168 00 43 06.02 +07 53 38.0   699 – Lowell Observatory-LONEOS MPS 143288
2005 08 29.44995 00 43 05.55 +07 53 32.1   699 – Lowell Observatory-LONEOS MPS 143288
2005 09 14.42377 00 34 40.18 +06 23 11.3 20.4 V 691 – Steward Observatory, Kitt Peak-Spacewatch MPS 150583
2005 09 14.44116 00 34 39.48 +06 23 04.3 19.4 V 691 – Steward Observatory, Kitt Peak-Spacewatch MPS 150583
2005 09 14.45860 00 34 38.78 +06 22 57.0 19.5 V 691 – Steward Observatory, Kitt Peak-Spacewatch MPS 150583
2005 09 22.39695 00 29 02.30 +05 25 03.5 18.9 R 644 – Palomar Mountain/NEAT MPS 143288
2005 09 22.41881 00 29 01.29 +05 24 53.8 18.8 R 644 – Palomar Mountain/NEAT MPS 143288
2005 09 22.44065 00 29 00.28 +05 24 43.7 18.8 R 644 – Palomar Mountain/NEAT MPS 143288
2005 09 23.29937 00 28 22.22 +05 18 07.9 19.0 V 703 – Catalina Sky Survey MPS 150583
2005 09 23.31064 00 28 21.57 +05 18 02.6 19.3 V 703 – Catalina Sky Survey MPS 150583
2005 09 23.32187 00 28 21.07 +05 17 56.1 18.7 V 703 – Catalina Sky Survey MPS 150583
2005 09 23.33312 00 28 20.56 +05 17 52.1 19.7 V 703 – Catalina Sky Survey MPS 150583
2005 09 26.34063 00 26 04.84 +04 54 24.0 18.8 R 644 – Palomar Mountain/NEAT MPS 142802
2005 09 26.36336 00 26 03.75 +04 54 13.2 18.7 R 644 – Palomar Mountain/NEAT MPS 142802
2005 09 26.38616 00 26 02.67 +04 54 02.4 19.0 R 644 – Palomar Mountain/NEAT MPS 142802
2005 09 29.26262 00 23 51.84 +04 31 14.4 18.5 R 644 – Palomar Mountain/NEAT MPS 150583
2005 09 29.27376 00 23 51.28 +04 31 09.3 18.9 R 699 – Lowell Observatory-LONEOS MPS 142802
2005 09 29.28478 00 23 50.78 +04 31 03.6 18.5 R 644 – Palomar Mountain/NEAT MPS 150583
2005 09 29.29660 00 23 50.18 +04 30 58.4   699 – Lowell Observatory-LONEOS MPS 142802
2005 09 29.30647 00 23 49.76 +04 30 53.2 18.8 R 644 – Palomar Mountain/NEAT MPS 150583
2005 09 29.31945 00 23 49.08 +04 30 46.0   699 – Lowell Observatory-LONEOS MPS 142802
2005 09 29.34225 00 23 48.03 +04 30 36.1   699 – Lowell Observatory-LONEOS MPS 142802
2005 10 01.16580 00 22 25.37 +04 16 03.9 19.2 V 691 – Steward Observatory, Kitt Peak-Spacewatch MPS 144182
2005 10 01.18665 00 22 24.39 +04 15 53.9 19.1 V 691 – Steward Observatory, Kitt Peak-Spacewatch MPS 144182
2005 10 01.20748 00 22 23.42 +04 15 43.8 19.2 V 691 – Steward Observatory, Kitt Peak-Spacewatch MPS 144182
2005 10 01.28357 00 22 19.81 +04 15 07.3 18.9 V G96 – Mt. Lemmon Survey MPS 144182
2005 10 01.28926 00 22 19.56 +04 15 04.5 18.9 V G96 – Mt. Lemmon Survey MPS 144182
2005 10 01.29491 00 22 19.27 +04 15 01.7 19.0 V G96 – Mt. Lemmon Survey MPS 144182
2005 10 01.30053 00 22 19.02 +04 14 59.1 19.0 V G96 – Mt. Lemmon Survey MPS 144182
2005 10 01.30350 00 22 18.84 +04 14 57.4 18.8 V 703 – Catalina Sky Survey MPS 144182
2005 10 01.30997 00 22 18.58 +04 14 53.9 18.7 V 703 – Catalina Sky Survey MPS 144182
2005 10 01.31652 00 22 18.26 +04 14 51.7 19.0 V 703 – Catalina Sky Survey MPS 144182
2005 10 01.32301 00 22 17.94 +04 14 48.1 19.0 V 703 – Catalina Sky Survey MPS 144182
2005 10 02.43896 00 21 27.30 +04 05 54.1 18.8 R 644 – Palomar Mountain/NEAT MPS 144182
2005 10 02.45974 00 21 26.33 +04 05 44.1 18.9 R 644 – Palomar Mountain/NEAT MPS 144182
2005 10 02.48110 00 21 25.30 +04 05 33.9 18.7 R 644 – Palomar Mountain/NEAT MPS 144182
2005 10 03.12086 00 20 57.07 +04 00 27.8 18.9 R 644 – Palomar Mountain/NEAT MPS 144182
2005 10 03.14228 00 20 56.11 +04 00 17.7 18.9 R 644 – Palomar Mountain/NEAT MPS 144182
2005 10 03.17375 00 20 54.65 +04 00 02.8 18.8 R 644 – Palomar Mountain/NEAT MPS 144182
2005 10 06.20903 00 18 39.82 +03 35 58.9 18.8 R 699 – Lowell Observatory-LONEOS MPS 143288
2005 10 06.23185 00 18 38.77 +03 35 49.1   699 – Lowell Observatory-LONEOS MPS 143288
2005 10 06.25468 00 18 37.72 +03 35 37.2   699 – Lowell Observatory-LONEOS MPS 143288
2005 10 06.27752 00 18 36.70 +03 35 27.3   699 – Lowell Observatory-LONEOS MPS 143288
2005 10 07.24471 00 17 54.70 +03 27 50.4 19.0 V 703 – Catalina Sky Survey MPS 143288
2005 10 07.25229 00 17 54.34 +03 27 48.6 19.2 V 703 – Catalina Sky Survey MPS 143288
2005 10 07.25987 00 17 54.02 +03 27 43.8 19.0 V 703 – Catalina Sky Survey MPS 143288
2005 10 07.26743 00 17 53.62 +03 27 40.9 19.7 V 703 – Catalina Sky Survey MPS 143288
2005 10 25.24177 00 07 10.48 +01 22 07.9 19.6 V G96 – Mt. Lemmon Survey MPS 145772
2005 10 25.24901 00 07 10.27 +01 22 05.3 19.6 V G96 – Mt. Lemmon Survey MPS 145772
2005 10 25.25625 00 07 10.09 +01 22 02.7 19.6 V G96 – Mt. Lemmon Survey MPS 145772
2005 10 25.26351 00 07 09.87 +01 22 00.3 19.6 V G96 – Mt. Lemmon Survey MPS 145772
2005 10 27.17527 00 06 22.42 +01 11 10.1 19.3 R 644 – Palomar Mountain/NEAT MPS 147162
2005 10 27.19890 00 06 21.82 +01 11 02.1 19.4 R 644 – Palomar Mountain/NEAT MPS 147162
2005 10 27.21959 00 06 21.29 +01 10 55.3 19.7 R 644 – Palomar Mountain/NEAT MPS 147162
2005 10 27.255497 00 06 20.328 +01 10 43.28 19.86 V 645 – Apache Point-Sloan Digital Sky Survey MPS 390149
2005 10 27.25587 00 06 20.32 +01 10 43.2 20.8   705 – Apache Point MPS 211704
2005 10 27.25669 00 06 20.31 +01 10 43.0 19.9 V 705 – Apache Point MPS 211704
2005 10 27.258969 00 06 20.238 +01 10 42.09 20.73   645 – Apache Point-Sloan Digital Sky Survey MPS 390149
